Terug naar catalogus

STARLINK-36347

ActiefCommunicatieVLEO
NORAD 68521·PAYLOAD·🇺🇸 United States

Gelanceerd Mar 30, 2026 vanaf Cape Canaveral Space Force Station

Loading…

Volgende Passages (komende 24 uur)

TLE

VersSource: CelesTrak SupGP

Epoch: Sep 14, 2026, 22:33 UTC

1 68521C 26068P   26257.94006944  .00007602  00000+0  22461-3 0  2571
2 68521  53.1588 327.9112 0001167  87.8251 233.2415 15.34384474    19

Volg STARLINK-36347 in realtime met AllMySat

Download on the App Store